Regional Weather Roundup
Issued by NWS Little Rock, AR

Home | Current Version | Previous Version | Text Only | Print | Product List | Glossary On
Versions: 1 2 3 4 5 6 7 8 9 10 11 12 13 14 15 16 17 18 19 20 21 22 23 24 25 26 27 28 29 30 31 32 33 34 35 36 37 38 39 40 41 42 43 44 45 46 47 48 49 50
000
ASUS44 KLZK 010205
RWRLZK

WEATHER ROUNDUP FOR ARKANSAS
NATIONAL WEATHER SERVICE LITTLE ROCK AR
900 PM CDT THU JUL 31 2014

NOTE: "FAIR" INDICATES FEW OR NO CLOUDS BELOW 12,000 FEET WITH NO
SIGNIFICANT WEATHER AND/OR OBSTRUCTIONS TO VISIBILITY.

ARZ001-003-010-029-010300-
NORTHWEST ARKANSAS

CITY           SKY/WX    TMP DP  RH WIND       PRES   REMARKS
FAYETTEVILLE   CLOUDY    68  67  96 CALM      30.06S
FORT SMITH     CLOUDY    71  65  81 E5        30.04S
HARRISON       CLOUDY    67  66  97 SE6       30.08R
BENTONVILLE    CLOUDY    70  64  83 E5        30.07S
ROGERS         CLOUDY    68  66  93 CALM      30.08S
SILOAM SPGS    CLOUDY    70  63  78 CALM      30.07S
HIGHFILL       CLOUDY    68  68 100 CALM      30.06S
SPRINGDALE     CLOUDY    70  68  94 CALM      30.08
$$

ARZ004-005-016-010300-
NORTH CENTRAL ARKANSAS

CITY           SKY/WX    TMP DP  RH WIND       PRES   REMARKS
BATESVILLE     CLOUDY    70  66  88 S3        30.06S
FLIPPIN        MOCLDY    66  64  94 CALM      30.07S
MTN HOME       CLOUDY    67  66  97 CALM      30.06S
$$

ARZ040-041-010300-
WEST CENTRAL ARKANSAS

CITY           SKY/WX    TMP DP  RH WIND       PRES   REMARKS
MENA           CLOUDY    68  66  94 NE5       30.06R
MOUNT IDA      CLOUDY    67  65  93 CALM      30.03S
$$

ARZ009-017-025-026-028-010300-
NORTHEAST ARKANSAS

CITY           SKY/WX    TMP DP  RH WIND       PRES   REMARKS
CORNING        FAIR      70  68  94 SW3       30.06S
JONESBORO      CLOUDY    71  66  84 S5        30.05S
NEWPORT        CLOUDY    71  65  81 SW5       30.07S
WALNUT RIDGE   CLOUDY    72  66  83 CALM      30.05S
BLYTHEVILLE    CLOUDY    72  68  87 CALM      30.06S
$$

ARZ022-023-033-042-044-010300-
CENTRAL ARKANSAS

CITY           SKY/WX    TMP DP  RH WIND       PRES   REMARKS
LITTLE ROCK    RAIN      70  67  90 SE5       30.06S FOG
N LITTLE ROCK  CLOUDY    68  67  97 SE5       30.06S
SEARCY         MOCLDY    70  67  90 CALM      30.07S
HOT SPRINGS    CLOUDY    67  65  93 E6        30.06S
RUSSELLVILLE   CLOUDY    71  67  87 CALM      30.05S
CLINTON        FAIR      72  68  88 CALM      30.06F
$$

ARZ036-010300-
EAST ARKANSAS

CITY           SKY/WX    TMP DP  RH WIND       PRES   REMARKS
WEST MEMPHIS   CLOUDY    70  69  97 NW3       30.05R
$$

ARZ050-053-066-070-073-010300-
SOUTHWEST ARKANSAS

CITY           SKY/WX    TMP DP  RH WIND       PRES   REMARKS
ARKADELPHIA    CLOUDY    68  67  96 NE3       30.04F
CAMDEN         MOCLDY    68  64  88 NE6       30.03S
TEXARKANA      CLOUDY    68  67  96 E8        30.00S FOG
EL DORADO      CLOUDY    70  68  93 E8        30.02S
DE QUEEN       LGT RAIN  67  66  97 E5        30.01R FOG
$$

ARZ056-057-069-010300-
SOUTHEAST ARKANSAS

CITY           SKY/WX    TMP DP  RH WIND       PRES   REMARKS
PINE BLUFF     CLOUDY    71  68  90 N3        30.04S
STUTTGART      CLOUDY    70  66  88 NE3       30.06S
MONTICELLO     CLOUDY    72  69  90 CALM      30.03S

$$




USA.gov is the U.S. government's official web portal to all federal, state and local government web resources and services.